Change the Weather History Date:

Tuesday, October 23, 2012

  Actual Average Record
Temperature  
Mean Temperature 58 °F -  
Max Temperature 64 °F 52 °F 72 °F (1993)
Min Temperature 53 °F 35 °F 23 °F (2006)
Degree Days  
Heating Degree Days 6    
Growing Degree Days 8 (Base 50)    
Moisture  
Dew Point 54 °F    
Average Humidity 90    
Maximum Humidity 100    
Minimum Humidity 72    
Precipitation  
Precipitation 0.37 in - - ()
Sea Level Pressure  
Sea Level Pressure 29.76 in    
Wind  
Wind Speed 5 mph (East)    
Max Wind Speed 12 mph    
Max Gust Speed -    
Visibility 4 miles    
Events Rain , Thunderstorm    
Averages and records for this station are not official NWS values.
T = Trace of Precipitation, MM = Missing Value Source: NWS Daily Summary

Daily Weather History Graph

Daily Weather History Graph

Search for Another Location

Airport or City:

Trip Planner

Search our weather history database for the weather conditions in past years. The results will help you decide how hot, cold, wet, or windy it might be!

Date:

Astronomy

Oct. 23, 2012 Rise Set
Actual Time 7:40 AM CDT 6:14 PM CDT
Civil Twilight 7:10 AM CDT 6:44 PM CDT
Nautical Twilight 6:36 AM CDT 7:18 PM CDT
Astronomical Twilight 6:02 AM CDT 7:52 PM CDT
Moon 3:12 PM CDT (10/23) 1:17 AM CDT (10/23)
Length of Visible Light 11h 33m
Length of Day
10h 33m
Waxing Gibbous, 67% of the Moon is Illuminated
Oct 23
Waxing Gibbous
Oct 29
Full
Nov 6
Last Quarter
Nov 13
New
Nov 20
First Quarter

Hourly Weather History & Observations

Time (CDT) Temp. Dew Point Humidity Pressure Visibility Wind Dir Wind Speed Gust Speed Precip Events Conditions
12:01 AM 53.6 °F 44.6 °F 72% 29.86 in 10.0 mi NE 5.8 mph - N/A   Overcast
1:53 AM 54.0 °F 46.9 °F 77% 29.84 in 10.0 mi ENE 4.6 mph - N/A   Overcast
2:31 AM 53.6 °F 48.2 °F 82% 29.82 in 10.0 mi East 5.8 mph - N/A   Overcast
2:53 AM 55.9 °F 52.0 °F 87% 29.82 in 7.0 mi East 6.9 mph - N/A   Overcast
3:53 AM 55.9 °F 52.0 °F 87% 29.78 in 5.0 mi East 9.2 mph - N/A   Overcast
4:53 AM 55.9 °F 52.0 °F 87% 29.79 in 5.0 mi ESE 4.6 mph - 0.01 in Rain Light Rain
5:22 AM 55.4 °F 51.8 °F 88% 29.78 in 5.0 mi ENE 5.8 mph - 0.02 in Rain , Thunderstorm Light Rain
5:44 AM 53.6 °F 53.6 °F 100% 29.77 in 1.8 mi ENE 5.8 mph - 0.19 in Rain , Thunderstorm Heavy Thunderstorms and Rain
5:53 AM 54.0 °F 53.1 °F 97% 29.79 in 1.2 mi North 4.6 mph - 0.29 in Rain , Thunderstorm Light Thunderstorms and Rain
5:58 AM 53.6 °F 53.6 °F 100% 29.78 in 3.0 mi Calm Calm - 0.00 in Rain , Thunderstorm Light Thunderstorms and Rain
6:32 AM 53.6 °F 53.6 °F 100% 29.78 in 2.5 mi NE 5.8 mph - 0.00 in Rain , Thunderstorm Light Rain
6:42 AM 53.6 °F 53.6 °F 100% 29.78 in 1.8 mi NE 4.6 mph - 0.06 in Rain , Thunderstorm Rain
6:50 AM 54.0 °F 53.1 °F 97% 29.79 in 2.5 mi ENE 4.6 mph - 0.07 in Rain Light Rain
7:38 AM 53.6 °F 53.6 °F 100% 29.77 in 1.8 mi ENE 5.8 mph - 0.00 in   Overcast
7:53 AM 54.0 °F 53.1 °F 97% 29.78 in 1.2 mi East 5.8 mph - 0.00 in   Overcast
8:14 AM 53.6 °F 53.6 °F 100% 29.77 in 0.8 mi East 4.6 mph - N/A   Overcast
8:29 AM 55.4 °F 53.6 °F 94% 29.78 in 1.0 mi East 5.8 mph - N/A   Overcast
8:49 AM 55.4 °F 53.6 °F 94% 29.78 in 0.8 mi East 5.8 mph - N/A   Overcast
8:53 AM 55.0 °F 54.0 °F 96% 29.78 in 0.8 mi East 5.8 mph - N/A   Overcast
10:00 AM 55.4 °F 55.4 °F 100% 29.76 in 1.8 mi ESE 8.1 mph - N/A   Overcast
10:24 AM 55.4 °F 55.4 °F 100% 29.75 in 2.0 mi East 6.9 mph - N/A   Overcast
10:53 AM 57.0 °F 55.0 °F 93% 29.75 in 2.0 mi ESE 8.1 mph - N/A   Overcast
11:16 AM 57.2 °F 55.4 °F 94% 29.73 in 1.8 mi ESE 6.9 mph - N/A   Overcast
11:37 AM 57.2 °F 55.4 °F 94% 29.73 in 2.0 mi SE 6.9 mph - N/A   Overcast
11:53 AM 59.0 °F 57.0 °F 93% 29.73 in 2.5 mi SE 8.1 mph - N/A   Overcast
12:53 PM 61.0 °F 57.9 °F 90% 29.72 in 3.0 mi ESE 5.8 mph - N/A   Overcast
1:21 PM 62.6 °F 57.2 °F 82% 29.70 in 4.0 mi ESE 4.6 mph - N/A   Overcast
1:53 PM 63.0 °F 59.0 °F 87% 29.69 in 4.0 mi ESE 5.8 mph - N/A   Overcast
2:53 PM 64.0 °F 57.9 °F 80% 29.68 in 4.0 mi ESE 9.2 mph - N/A   Haze
3:53 PM 63.0 °F 59.0 °F 87% 29.68 in 4.0 mi ESE 4.6 mph - N/A   Overcast
4:53 PM 63.0 °F 59.0 °F 87% 29.69 in 4.0 mi SSE 5.8 mph - N/A   Overcast
5:53 PM 63.0 °F 55.0 °F 75% 29.71 in 8.0 mi SSW 11.5 mph - N/A   Overcast
6:32 PM 62.6 °F 55.4 °F 77% 29.72 in 9.0 mi WSW 5.8 mph - N/A   Overcast
7:00 PM 62.6 °F 55.4 °F 77% 29.73 in 9.0 mi Calm Calm - N/A   Overcast
7:42 PM 59.0 °F 53.6 °F 82% 29.73 in 9.0 mi Calm Calm - N/A   Overcast
7:53 PM 59.0 °F 55.0 °F 87% 29.73 in 8.0 mi Calm Calm - N/A   Mostly Cloudy
8:53 PM 54.0 °F 53.1 °F 97% 29.75 in 4.0 mi Calm Calm - N/A   Mostly Cloudy
9:21 PM 55.4 °F 53.6 °F 94% 29.75 in 5.0 mi Calm Calm - N/A   Mostly Cloudy
9:53 PM 55.0 °F 54.0 °F 96% 29.77 in 5.0 mi Calm Calm - N/A   Overcast
10:53 PM 57.0 °F 55.0 °F 93% 29.78 in 6.0 mi Calm Calm - N/A   Overcast
11:53 PM 59.0 °F 55.0 °F 87% 29.78 in 8.0 mi WSW 4.6 mph - N/A   Overcast